{"data":{"norad_id":51780,"epoch":"2026-05-25T00:25:30.815328Z","epoch_age_seconds":63654,"freshness":"FRESH","line1":"1 51780U 22017N   26145.01771777 -.00001338  00000+0 -65974-4 0  9999","line2":"2 51780  53.2150 356.4585 0001248  91.2317 268.8819 15.08849181233941","mean_motion":15.08849181,"eccentricity":0.0001248,"inclination_deg":53.215,"raan_deg":356.4585,"arg_perigee_deg":91.2317,"mean_anomaly_deg":268.8819,"bstar":-6.5974e-5,"rev_number":23394,"period_min":95.436973962211,"perigee_km":538.85197849197,"apogee_km":540.57867443266,"semimajor_km":6917.8523264623,"source":"CELESTRAK","updated_at":"2026-05-25T13:38:16.952288Z"}}